Total_Precipitation_Accumulation
0.28 0.33 0.45 0.31 0.25 0.28 0.32 0.36 0.39 0.35 0.33 0.33 0.28 0.24 0.25 0.26 0.23 0.22 0.25 0.31 0.36 0.40 0.45 0.53 0.62 0.66 0.70 0.68 0.64 0.60 0.63 0.69 0.84 0.86 0.86 0.87 0.99 1.21 1.37 1.35 1.35 0.89 0.77
0.13 0.21 0.35 0.25 0.21 0.25 0.28 0.32 0.33 0.30 0.27 0.27 0.25 0.24 0.25 0.26 0.26 0.26 0.30 0.37 0.41 0.43 0.46 0.52 0.55 0.53 0.52 0.53 0.53 0.51 0.59 0.76 0.98 1.10 1.16 1.06 1.20 1.38 1.38 1.27 1.37 0.81 0.76
0.08 0.10 0.17 0.21 0.18 0.20 0.22 0.28 0.33 0.31 0.27 0.25 0.24 0.24 0.28 0.32 0.31 0.31 0.33 0.38 0.42 0.46 0.42 0.41 0.41 0.41 0.43 0.47 0.50 0.56 0.64 0.92 1.25 1.48 1.64 1.32 0.94 1.30 1.35 1.23 1.07 0.70 0.78
0.05 0.06 0.10 0.17 0.17 0.17 0.19 0.24 0.32 0.32 0.29 0.26 0.26 0.26 0.28 0.34 0.41 0.40 0.40 0.46 0.46 0.46 0.39 0.38 0.36 0.35 0.38 0.43 0.51 0.64 0.76 0.97 1.29 1.71 1.91 1.20 0.66 0.85 0.98 0.90 0.85 0.73 0.72
0.05 0.07 0.14 0.17 0.14 0.14 0.16 0.23 0.30 0.29 0.26 0.24 0.24 0.28 0.31 0.35 0.41 0.45 0.46 0.46 0.46 0.45 0.40 0.36 0.30 0.30 0.33 0.39 0.52 0.66 0.79 1.00 1.27 1.49 1.27 1.17 1.01 0.89 0.80 0.73 0.75 0.70 0.61
0.06 0.07 0.11 0.16 0.15 0.13 0.14 0.18 0.26 0.28 0.25 0.26 0.28 0.32 0.35 0.36 0.40 0.40 0.40 0.41 0.43 0.43 0.41 0.37 0.28 0.32 0.39 0.43 0.56 0.68 0.78 1.01 1.14 0.91 0.78 0.94 0.84 0.88 0.85 0.87 0.87 0.76 0.61
0.07 0.07 0.10 0.15 0.15 0.14 0.15 0.18 0.22 0.28 0.27 0.27 0.28 0.30 0.33 0.37 0.40 0.39 0.35 0.36 0.41 0.43 0.39 0.34 0.32 0.37 0.43 0.47 0.55 0.65 0.86 1.04 0.97 0.70 0.73 0.93 0.72 0.68 0.87 1.03 1.12 0.94 0.76
0.12 0.08 0.11 0.18 0.20 0.22 0.21 0.23 0.24 0.25 0.28 0.31 0.29 0.27 0.29 0.33 0.34 0.37 0.37 0.37 0.39 0.43 0.39 0.33 0.38 0.42 0.46 0.50 0.53 0.60 0.80 0.90 0.76 0.67 0.68 0.71 0.50 0.60 0.85 1.07 1.22 1.12 0.97
0.23 0.21 0.17 0.21 0.25 0.29 0.31 0.30 0.31 0.30 0.30 0.34 0.33 0.31 0.32 0.31 0.31 0.35 0.44 0.44 0.42 0.43 0.41 0.35 0.35 0.37 0.39 0.42 0.50 0.60 0.77 0.92 0.81 0.72 0.59 0.54 0.47 0.63 0.91 1.07 1.15 1.19 1.11
0.58 0.44 0.29 0.28 0.32 0.29 0.29 0.36 0.41 0.36 0.35 0.35 0.33 0.33 0.33 0.34 0.35 0.40 0.44 0.51 0.55 0.52 0.49 0.42 0.36 0.37 0.43 0.48 0.58 0.74 0.88 0.84 0.76 0.79 0.79 0.59 0.57 0.73 0.93 1.04 1.21 1.27 1.18
1.07 0.89 0.55 0.42 0.41 0.42 0.37 0.39 0.51 0.49 0.42 0.41 0.44 0.45 0.52 0.64 0.63 0.73 0.69 0.76 0.77 0.72 0.67 0.64 0.61 0.58 0.54 0.51 0.66 0.89 0.86 0.79 1.02 1.07 0.77 0.62 0.72 0.96 1.14 1.22 1.29 1.29 1.26
1.25 1.15 0.84 0.73 0.56 0.48 0.44 0.55 0.74 0.69 0.68 0.69 0.79 0.78 1.01 1.22 1.15 0.91 1.00 1.24 1.24 1.21 1.10 1.09 1.09 0.90 0.72 0.68 1.17 1.49 1.09 1.11 1.19 0.92 0.75 0.83 1.11 1.40 1.63 1.54 1.38 1.25 1.17
1.39 1.25 1.01 0.97 0.86 0.70 0.80 0.74 0.86 1.01 1.11 0.98 0.96 1.03 1.37 1.30 1.07 1.06 1.15 1.37 1.58 1.52 1.42 1.57 1.66 1.36 1.30 1.53 1.85 1.75 1.34 1.36 1.33 1.12 0.92 1.10 1.47 1.88 2.12 1.98 1.68 1.41 1.22
1.71 1.53 1.32 1.17 1.06 1.01 0.99 0.93 0.95 0.99 1.13 1.08 1.22 1.23 1.44 1.64 1.56 1.54 1.64 1.66 1.78 1.91 2.18 2.11 2.16 1.99 1.89 1.82 1.97 1.77 1.57 1.60 1.51 1.64 1.66 1.67 1.74 2.00 2.43 2.35 1.99 1.69 1.50
2.22 2.08 1.88 1.56 1.52 1.45 1.47 1.44 1.22 1.22 1.29 1.40 1.58 1.62 1.60 1.78 1.82 1.89 1.91 1.94 1.82 1.93 2.11 2.35 2.26 2.36 2.41 2.20 1.92 1.79 1.86 1.86 1.94 1.93 1.86 2.06 1.98 1.96 2.41 2.52 2.24 1.96 1.80
2.90 2.90 2.69 2.35 2.29 2.18 1.94 1.81 1.74 1.60 1.70 1.76 1.84 1.86 1.87 2.08 2.22 2.16 1.99 2.01 1.92 1.96 2.04 2.23 2.32 2.65 2.61 2.52 2.10 1.92 1.95 2.02 2.02 2.12 2.04 2.32 2.21 1.93 2.15 2.39 2.48 2.32 2.10
3.20 3.36 3.35 3.19 3.16 3.00 2.68 2.34 2.12 2.07 1.98 2.12 2.22 2.19 2.24 2.29 2.43 2.34 2.20 2.03 2.04 2.09 2.21 2.25 2.39 2.66 2.64 2.52 2.30 2.12 2.02 1.86 1.75 1.81 1.88 2.08 2.02 1.87 1.94 2.14 2.40 2.47 2.34
3.48 3.67 3.88 3.82 3.81 3.56 3.25 2.93 2.67 2.48 2.39 2.37 2.36 2.39 2.32 2.45 2.49 2.48 2.26 2.00 2.15 2.12 2.23 2.46 2.56 2.72 2.86 2.86 2.57 2.28 2.10 1.92 1.73 1.68 1.63 1.64 1.80 1.51 1.72 1.97 2.15 2.28 2.54
3.85 4.22 4.56 4.61 4.50 4.12 3.68 3.42 3.30 3.07 2.82 2.63 2.62 2.51 2.43 2.47 2.38 2.45 2.25 2.14 2.24 2.37 2.38 2.23 2.68 2.93 2.97 2.96 2.49 2.31 1.96 1.80 1.62 1.48 1.50 1.36 1.43 1.43 1.48 1.58 1.77 1.90 2.36
4.36 4.93 4.95 4.87 5.10 4.85 4.46 4.18 3.91 3.51 3.18 2.90 2.75 2.59 2.40 2.31 2.24 2.46 2.16 2.14 2.33 2.50 2.49 2.55 2.88 2.99 2.84 2.94 2.51 2.13 1.78 1.44 1.37 1.31 1.21 1.16 1.12 1.03 1.11 1.37 1.70 1.58 1.98
4.19 4.73 5.25 5.28 5.16 4.91 4.55 4.07 3.70 3.33 3.14 2.90 2.64 2.44 2.38 2.35 2.39 2.69 2.38 2.50 2.45 2.41 2.44 2.59 2.77 2.70 2.54 2.89 2.93 2.24 1.54 1.16 1.10 0.95 0.93 0.95 0.88 0.90 1.13 1.46 1.65 1.73 1.58
3.60 4.05 4.44 4.66 4.31 3.86 3.63 3.55 3.41 3.38 3.03 2.87 2.81 2.78 2.55 2.55 2.48 2.46 2.53 2.44 2.46 2.48 2.30 2.37 2.63 2.50 2.14 2.51 2.76 2.71 2.01 1.52 1.11 0.70 0.77 0.80 0.83 1.01 1.08 1.14 1.43 1.74 1.65
3.04 3.22 3.36 3.49 3.48 3.42 3.47 3.57 3.62 3.70 3.39 3.25 3.15 3.01 2.69 2.60 2.51 2.51 2.35 2.23 2.30 2.25 2.13 2.11 2.30 2.39 2.18 2.15 2.48 2.84 2.31 1.70 1.31 0.86 0.80 0.80 1.00 1.26 1.26 1.25 1.35 1.55 1.62
2.39 2.64 3.06 3.19 3.27 3.44 3.67 3.66 3.64 3.51 3.38 3.36 3.44 3.40 3.29 3.04 2.77 2.55 2.32 2.17 2.05 1.95 1.98 1.77 1.99 2.13 2.21 1.91 2.04 2.12 2.00 1.93 1.85 1.35 1.00 0.93 1.15 1.28 1.31 1.29 1.33 1.47 1.55
2.02 2.28 2.76 3.23 3.43 3.61 3.81 3.87 4.04 3.88 3.67 3.51 3.53 3.57 3.35 3.13 2.86 2.55 2.41 2.27 2.13 1.96 1.86 1.78 1.91 1.85 1.85 1.78 1.86 1.86 1.86 1.84 1.75 1.68 1.38 1.26 1.20 0.97 0.98 1.07 1.27 1.57 1.63
2.16 2.38 2.68 3.09 3.40 3.58 3.69 3.72 3.74 3.67 3.58 3.36 3.24 2.99 2.68 2.57 2.46 2.29 2.20 2.10 1.96 1.94 1.93 1.88 1.82 1.76 1.77 1.82 1.81 1.76 1.81 1.83 1.81 1.88 1.64 1.44 1.31 1.08 1.04 1.08 1.20 1.39 1.48